LILACSAT-2

Last updated on Sat Feb 08 2025 00:03:03 GMT+0000 (Coordinated Universal Time)

1 40908U 15049K 25038.79753200 .00015479 00000+0 46280-3 0 9999 2 40908 97.5171 56.4920 0008553 229.0601 130.9902 15.34631039519521
UTC large
Height (km)
Speed (km/s)
/
Latitude / Longitude
Inclination (degrees)
Orbital Period (minutes)
Azimuth
Elevation
Range (km)
Doppler Factor

Next 0 passes for location: London (51.5072 / 0.1276)

Sorry there are no passes over London.